{"data":{"norad_id":67653,"epoch":"2026-05-25T01:30:26.472960Z","epoch_age_seconds":65510,"freshness":"FRESH","line1":"1 67653U 26022F   26145.06280640  .00019814  00000+0  61427-3 0  9998","line2":"2 67653  97.2842 178.2684 0000908  93.1417 266.9930 15.33454722 17277","mean_motion":15.33454722,"eccentricity":9.08e-5,"inclination_deg":97.2842,"raan_deg":178.2684,"arg_perigee_deg":93.1417,"mean_anomaly_deg":266.993,"bstar":0.00061427,"rev_number":1727,"period_min":93.905609297801,"perigee_km":464.89284526557,"apogee_km":466.13565233235,"semimajor_km":6843.651248799,"source":"CELESTRAK","updated_at":"2026-05-25T13:38:21.657302Z"}}